Wind_Speed
7 7 7 7 6 6 5 5 6 6 6 6 6 6 7 7 7 7 7 7 7 7 8 8 9 8 9 10 9 9 10 11 11 11 11 11 11 12 12 13 12 13 13
8 7 7 8 7 7 6 6 6 7 7 7 7 7 7 8 8 8 8 8 8 9 9 10 10 10 10 10 10 10 10 11 11 11 11 12 12 11 12 12 12 13 14
8 7 8 8 8 7 7 8 7 8 8 8 8 8 8 8 8 9 9 9 10 10 11 11 11 11 11 12 11 11 11 11 12 12 12 12 12 12 12 12 13 14 15
9 9 9 9 9 8 8 8 8 8 8 8 8 8 9 9 8 9 10 10 11 11 11 12 12 11 12 12 12 12 12 12 12 12 13 13 13 13 13 13 13 14 16
10 10 10 10 10 9 10 9 8 8 8 8 9 9 9 9 10 10 11 11 11 12 12 12 13 13 13 13 13 13 13 13 13 13 13 13 13 13 14 14 14 15 15
11 11 11 10 10 10 10 10 9 9 9 9 9 9 10 10 11 11 11 11 11 12 12 13 13 14 14 14 13 14 14 14 13 13 14 13 14 14 14 15 15 16 16
11 11 11 10 10 10 10 10 11 10 9 9 9 9 10 11 12 12 12 12 12 12 12 13 13 14 14 14 14 13 14 14 14 14 14 15 15 15 15 15 16 16 16
12 11 11 11 10 9 9 9 10 11 11 11 10 10 11 12 12 12 12 13 12 12 13 13 13 13 13 14 14 14 14 15 15 15 15 16 16 16 16 16 16 16 16
12 11 11 11 10 10 9 9 10 10 10 11 11 11 11 12 12 12 12 12 12 13 13 13 13 13 13 14 14 14 15 15 15 15 16 17 17 17 16 16 16 17 17
12 12 12 11 11 11 10 10 10 10 10 11 11 11 11 11 11 12 12 13 13 13 13 13 13 13 14 14 14 14 15 15 15 16 16 16 17 16 16 17 17 18 18
12 12 12 11 12 12 12 11 11 10 11 11 12 12 12 12 12 12 13 14 14 14 13 13 13 14 15 15 15 15 15 15 15 16 17 17 16 16 16 17 18 19 19
12 12 12 12 12 13 13 12 12 12 12 12 12 12 12 12 12 12 13 14 13 14 14 14 13 14 15 15 16 16 16 16 16 16 17 17 17 17 17 17 18 19 19
12 13 13 13 13 13 13 13 12 12 13 13 13 13 13 13 13 13 13 13 14 14 14 14 14 14 15 16 16 16 17 17 16 17 17 17 17 16 16 16 17 19 19
14 14 14 13 14 14 13 13 13 13 13 14 14 14 14 14 13 14 14 14 14 15 15 15 15 15 15 16 17 17 17 17 17 17 17 17 16 16 16 16 17 18 19
14 14 15 14 14 14 14 13 13 14 14 15 14 14 14 14 14 14 15 15 15 15 15 15 15 16 16 16 16 17 17 17 18 18 17 17 17 16 17 17 18 18 19
15 15 15 15 14 14 14 14 14 13 14 14 15 14 14 14 15 15 15 15 15 14 15 15 15 16 16 16 16 17 17 17 18 18 18 17 16 16 17 17 19 20 19
15 15 15 15 15 14 14 13 13 13 14 14 14 14 14 14 15 15 15 14 15 15 15 15 15 16 17 17 17 17 17 17 17 18 18 17 17 17 17 18 19 19 19
15 15 15 15 15 14 14 14 14 14 14 14 15 15 14 15 15 15 14 15 15 15 16 16 16 16 16 16 16 16 16 16 17 17 17 17 18 18 19 19 20 20 20
16 16 16 15 15 15 15 15 15 15 15 15 15 15 15 15 15 15 15 15 16 16 16 15 15 15 16 16 16 16 16 16 17 18 18 19 19 19 19 20 20 20 21
18 18 17 16 16 16 16 16 16 16 16 16 16 16 16 16 15 15 15 16 16 16 16 16 16 16 16 16 17 16 17 17 17 18 19 19 19 19 20 20 20 20 20
19 19 18 18 17 17 17 17 17 17 16 16 16 16 16 16 16 16 16 17 17 17 17 16 17 17 17 17 17 17 18 18 18 19 19 20 20 21 20 20 21 20 20
20 20 20 19 18 18 18 18 18 17 17 17 17 17 16 16 16 17 17 17 17 17 17 17 17 17 17 17 18 18 18 18 19 20 20 20 20 21 21 21 20 20 20
21 21 20 20 19 19 19 19 19 18 18 18 18 17 17 17 17 17 18 18 18 18 18 18 17 17 18 18 19 19 19 19 20 21 21 21 21 22 22 21 20 20 21
22 22 21 21 20 20 20 19 19 19 19 19 19 18 18 17 17 17 18 18 18 19 19 19 19 18 18 19 19 19 19 20 20 21 21 21 22 21 21 21 20 20 20
22 22 22 21 21 21 21 20 20 20 19 20 20 19 19 19 18 18 18 18 19 19 19 20 20 19 20 20 20 21 21 22 22 21 21 22 22 21 21 21 20 20 20
21 21 21 22 22 21 21 20 20 20 20 20 20 20 20 20 19 19 19 19 20 20 20 20 20 20 20 21 21 22 22 23 23 23 23 23 23 22 20 20 20 20 20
Wind_Direction
250 249 246 242 238 238 240 247 244 249 245 246 257 262 258 255 253 251 247 243 242 242 245 247 249 253 255 256 260 261 254 255 255 258 257 257 261 258 256 252 252 252 252
246 250 250 239 239 242 250 258 256 257 260 258 260 262 259 258 253 250 250 248 249 249 251 252 251 252 254 254 257 261 256 255 256 258 260 258 261 261 259 257 254 254 255
241 249 249 241 239 242 251 257 256 257 261 262 265 263 258 255 255 255 256 256 255 254 253 254 254 252 253 256 262 262 260 258 259 260 261 260 259 261 259 260 261 259 258
242 249 250 248 247 246 251 255 257 258 260 265 266 264 263 257 259 259 261 259 258 257 255 255 256 256 256 257 259 259 259 260 262 264 263 259 259 260 262 264 265 265 262
243 250 256 252 252 251 253 251 253 254 257 264 263 264 264 262 261 262 262 260 260 258 258 257 255 256 256 255 256 257 260 262 265 267 266 262 260 259 263 264 267 267 266
248 251 252 250 249 252 251 248 248 252 257 262 265 266 269 274 269 266 262 259 261 261 259 257 257 258 256 255 257 257 258 262 265 267 266 265 264 264 266 267 270 270 269
248 251 253 252 252 254 254 251 250 253 261 267 271 271 274 278 275 267 263 260 261 261 261 260 258 258 257 256 257 257 259 262 264 267 267 266 264 266 268 269 271 271 272
248 250 253 253 254 257 257 256 256 258 263 267 272 274 277 277 275 270 264 262 262 261 263 263 260 258 258 258 257 259 259 262 264 267 268 269 270 268 269 268 271 271 272
249 249 252 251 252 257 259 260 262 267 270 270 272 276 278 276 275 272 268 265 265 263 264 262 261 259 259 261 259 260 261 264 267 270 273 274 273 269 267 270 273 272 271
251 251 250 250 253 258 261 262 265 269 276 275 273 278 280 275 273 272 268 268 268 265 263 261 261 260 261 261 261 262 263 266 269 271 274 276 275 271 269 269 271 270 269
248 249 248 252 255 257 261 263 263 270 274 274 276 279 281 275 273 273 270 269 267 265 263 265 265 264 264 264 265 265 266 270 272 273 274 277 276 274 274 272 273 271 270
246 248 247 254 256 257 259 262 263 270 273 273 276 279 280 278 274 273 273 271 267 265 266 267 267 266 266 268 268 268 268 270 271 273 276 278 278 277 275 273 273 271 270
247 249 251 256 259 262 263 266 267 270 271 274 278 282 279 277 276 275 273 271 268 268 268 270 270 269 269 270 270 270 270 270 273 275 278 279 280 279 278 275 273 272 272
251 253 254 257 261 266 267 270 271 270 273 277 280 282 280 276 275 273 270 269 268 268 268 268 271 272 272 273 271 270 271 271 274 277 278 279 281 281 279 277 275 273 273
253 256 256 259 262 264 269 273 276 275 277 280 281 281 280 275 273 272 270 268 269 267 268 270 271 273 274 273 273 271 271 271 274 277 278 279 280 280 280 280 279 277 276
251 255 257 260 261 264 267 272 275 277 277 278 281 280 277 275 274 273 272 271 270 269 270 272 273 274 276 274 273 272 270 271 273 276 278 278 278 278 280 280 280 278 278
251 253 257 259 260 263 266 267 272 276 276 276 277 278 276 276 276 272 271 271 270 271 273 275 276 277 278 278 276 272 271 272 274 275 277 278 280 280 281 281 279 278 277
251 253 257 259 258 259 262 264 268 272 276 277 277 277 277 276 277 274 271 271 272 272 274 276 278 279 280 279 277 271 269 271 272 274 276 279 280 282 283 282 279 277 275
252 253 256 257 257 256 260 264 267 272 275 277 277 278 278 276 275 274 272 273 273 274 274 276 277 279 281 279 279 275 273 272 273 275 277 279 279 281 283 282 279 276 276
253 253 254 255 256 257 262 266 268 272 274 275 276 277 278 278 273 272 272 273 274 273 274 275 275 278 279 279 279 275 274 275 277 280 281 282 282 283 283 283 279 276 275
253 253 254 255 256 258 261 266 269 271 272 274 275 277 280 278 274 273 272 272 272 272 274 275 277 279 279 277 277 277 278 279 280 281 283 285 285 283 283 284 283 279 278
251 253 254 254 256 257 259 263 268 268 270 272 275 279 280 278 273 271 271 272 273 272 273 275 278 279 278 279 278 279 279 280 282 283 282 283 283 284 286 287 284 284 283
251 251 253 254 256 257 259 262 264 267 269 270 274 277 280 279 274 271 270 272 272 273 275 275 277 276 277 278 278 280 280 283 284 283 283 284 284 286 287 287 286 286 285
250 251 253 255 256 256 259 262 263 266 266 268 272 274 278 277 275 274 272 273 274 275 274 274 274 274 276 278 279 281 281 283 285 284 283 284 285 287 289 289 288 286 286
250 250 252 254 255 257 259 261 263 265 266 270 272 273 276 276 274 275 275 275 274 274 274 274 274 273 274 278 280 281 281 283 285 284 283 283 284 283 286 289 290 289 288
252 251 253 254 255 257 259 260 261 264 266 270 273 274 275 275 275 276 276 277 275 274 276 275 274 274 274 278 280 282 282 282 284 284 283 282 282 283 285 288 290 289 287
Height
5866 5866 5866 5867 5867 5867 5867 5868 5868 5869 5869 5869 5870 5870 5870 5870 5871 5871 5871 5871 5872 5872 5872 5872 5872 5872 5872 5872 5872 5872 5873 5873 5873 5873 5874 5874 5874 5875 5875 5875 5875 5876 5876
5864 5864 5865 5865 5865 5866 5866 5866 5867 5867 5867 5868 5868 5868 5868 5868 5869 5869 5869 5869 5870 5870 5870 5870 5870 5870 5870 5870 5871 5871 5871 5871 5871 5871 5871 5871 5872 5872 5872 5873 5873 5873 5873
5862 5863 5863 5863 5864 5864 5865 5865 5865 5866 5866 5866 5866 5866 5866 5866 5867 5867 5867 5867 5868 5868 5867 5867 5867 5868 5868 5868 5868 5869 5869 5869 5869 5869 5869 5869 5869 5869 5869 5869 5870 5870 5870
5860 5861 5861 5862 5862 5862 5863 5863 5864 5864 5864 5864 5864 5864 5864 5864 5864 5864 5865 5865 5865 5865 5865 5865 5865 5865 5866 5866 5866 5866 5867 5867 5867 5866 5866 5866 5866 5866 5866 5866 5866 5866 5867
5858 5859 5859 5859 5859 5860 5861 5861 5861 5862 5862 5862 5862 5862 5862 5862 5862 5862 5862 5862 5862 5862 5862 5862 5862 5862 5863 5863 5864 5864 5864 5864 5864 5864 5863 5863 5863 5863 5863 5863 5863 5863 5863
5855 5856 5856 5857 5857 5858 5858 5859 5859 5860 5860 5860 5859 5859 5859 5859 5859 5859 5859 5859 5859 5859 5859 5859 5859 5859 5860 5860 5860 5861 5861 5861 5861 5861 5860 5860 5860 5860 5860 5860 5859 5859 5859
5853 5853 5854 5854 5855 5855 5856 5856 5856 5857 5857 5857 5857 5856 5856 5856 5856 5856 5856 5856 5856 5856 5855 5855 5855 5856 5856 5857 5857 5857 5858 5858 5858 5857 5857 5857 5857 5857 5856 5856 5856 5855 5855
5850 5850 5851 5852 5852 5853 5853 5853 5854 5854 5854 5854 5854 5854 5854 5854 5853 5853 5853 5853 5852 5852 5852 5852 5852 5852 5852 5853 5853 5854 5854 5854 5854 5854 5853 5853 5853 5853 5852 5852 5851 5851 5851
5847 5847 5848 5849 5850 5850 5851 5851 5851 5851 5851 5851 5851 5851 5851 5851 5850 5850 5849 5849 5849 5849 5849 5849 5849 5849 5849 5849 5850 5850 5850 5850 5850 5850 5849 5849 5848 5848 5848 5847 5847 5846 5846
5844 5845 5846 5846 5847 5848 5848 5848 5848 5848 5848 5848 5848 5848 5847 5847 5847 5846 5846 5846 5846 5845 5845 5845 5845 5845 5845 5846 5846 5846 5846 5846 5846 5846 5845 5845 5844 5844 5843 5843 5842 5842 5841
5841 5842 5843 5843 5844 5845 5845 5845 5845 5845 5845 5845 5845 5845 5844 5843 5843 5843 5843 5843 5842 5842 5842 5842 5842 5842 5842 5842 5842 5842 5842 5842 5842 5841 5841 5840 5840 5839 5838 5838 5838 5837 5837
5838 5839 5839 5840 5841 5841 5842 5842 5842 5842 5842 5842 5841 5841 5841 5840 5839 5839 5839 5839 5839 5839 5838 5838 5839 5838 5838 5838 5838 5838 5838 5838 5838 5837 5837 5836 5835 5834 5833 5833 5832 5832 5832
5835 5836 5836 5837 5837 5838 5838 5838 5838 5838 5838 5838 5838 5837 5837 5837 5836 5836 5835 5835 5835 5835 5835 5835 5835 5835 5834 5834 5834 5834 5834 5834 5833 5833 5832 5832 5831 5829 5829 5828 5827 5826 5826
5832 5832 5833 5833 5834 5834 5834 5834 5834 5834 5835 5835 5834 5834 5833 5833 5833 5832 5832 5832 5832 5832 5832 5831 5831 5831 5831 5830 5830 5830 5830 5829 5829 5829 5828 5827 5826 5825 5824 5823 5822 5822 5821
5828 5829 5829 5830 5830 5831 5831 5831 5831 5831 5831 5831 5831 5830 5829 5829 5829 5828 5828 5828 5828 5828 5828 5828 5827 5827 5826 5826 5825 5825 5825 5825 5825 5824 5823 5823 5822 5821 5820 5819 5818 5817 5816
5824 5825 5825 5826 5826 5827 5827 5827 5827 5827 5828 5827 5827 5826 5825 5825 5825 5824 5824 5824 5824 5824 5824 5823 5823 5822 5822 5822 5821 5821 5821 5820 5820 5819 5819 5818 5817 5816 5815 5814 5813 5812 5811
5820 5821 5821 5822 5822 5823 5823 5824 5824 5824 5824 5823 5823 5822 5822 5821 5820 5820 5820 5820 5820 5820 5820 5819 5819 5818 5818 5817 5817 5816 5816 5815 5815 5815 5814 5813 5812 5811 5810 5809 5808 5807 5806
5816 5817 5818 5818 5819 5819 5820 5820 5820 5820 5820 5819 5819 5818 5818 5817 5817 5816 5816 5816 5816 5815 5815 5815 5814 5814 5813 5813 5812 5812 5811 5811 5810 5810 5809 5808 5807 5806 5805 5804 5803 5801 5800
5812 5813 5814 5814 5815 5815 5816 5816 5816 5816 5816 5815 5815 5814 5813 5813 5813 5812 5812 5812 5811 5811 5811 5810 5810 5809 5809 5808 5808 5807 5807 5807 5806 5805 5804 5804 5802 5801 5800 5798 5797 5796 5795
5808 5809 5809 5810 5811 5811 5812 5812 5812 5812 5811 5811 5810 5810 5809 5809 5808 5808 5808 5808 5807 5807 5806 5806 5806 5805 5804 5804 5803 5803 5802 5802 5801 5801 5800 5798 5797 5796 5794 5793 5791 5790 5789
5803 5804 5805 5806 5806 5807 5807 5808 5807 5807 5807 5806 5806 5805 5805 5804 5804 5804 5803 5803 5803 5802 5802 5802 5801 5800 5800 5799 5799 5798 5798 5797 5796 5795 5794 5793 5791 5790 5788 5787 5785 5784 5783
5798 5799 5800 5801 5802 5802 5803 5803 5803 5802 5802 5802 5801 5801 5800 5799 5799 5799 5798 5798 5798 5798 5797 5797 5796 5796 5795 5794 5794 5793 5793 5792 5791 5791 5789 5787 5785 5784 5782 5780 5779 5778 5777
5792 5794 5795 5796 5796 5797 5798 5798 5798 5798 5797 5797 5796 5796 5795 5794 5794 5794 5793 5793 5793 5792 5792 5792 5791 5791 5790 5789 5789 5788 5787 5787 5786 5784 5783 5781 5780 5778 5776 5774 5772 5771 5770
5786 5788 5789 5790 5791 5792 5792 5793 5793 5792 5792 5792 5791 5791 5790 5789 5789 5788 5788 5788 5788 5787 5787 5787 5786 5786 5785 5784 5783 5783 5782 5781 5780 5778 5777 5775 5774 5772 5770 5768 5767 5765 5764
5780 5782 5783 5784 5785 5786 5787 5787 5787 5787 5787 5787 5786 5785 5785 5784 5784 5783 5783 5782 5782 5782 5781 5781 5781 5780 5780 5779 5778 5777 5776 5775 5774 5772 5771 5769 5768 5766 5765 5763 5761 5759 5758
5774 5776 5777 5778 5779 5780 5781 5781 5781 5781 5781 5781 5780 5780 5779 5779 5778 5777 5777 5776 5776 5776 5776 5775 5775 5774 5774 5773 5772 5771 5770 5768 5767 5766 5764 5763 5761 5760 5759 5758 5756 5753 5751